Weather History for Benson, MN

Change the Weather History Date:

Monday, June 16, 2014

  Actual Average Record
Temperature  
Mean Temperature 63 °F -  
Max Temperature 73 °F 77 °F 93 °F (2003)
Min Temperature 53 °F 54 °F 42 °F (1976)
Degree Days  
Heating Degree Days 2    
Growing Degree Days 13 (Base 50)    
Moisture  
Dew Point 57 °F    
Average Humidity 77    
Maximum Humidity 94    
Minimum Humidity 64    
Precipitation  
Precipitation 0.00 in - - ()
Sea Level Pressure  
Sea Level Pressure 29.77 in    
Wind  
Wind Speed 6 mph (South)    
Max Wind Speed 20 mph    
Max Gust Speed 26 mph    
Visibility 10 miles    
Events Rain , Thunderstorm    
Averages and records for this station are not official NWS values.
T = Trace of Precipitation, MM = Missing Value Source: NWS Daily Summary

Daily Weather History Graph

Daily Weather History Graph

Search for Another Location

Airport:

Trip Planner

Search our weather history database for the weather conditions in past years. The results will help you decide how hot, cold, wet, or windy it might be!

Date:

Astronomy

Jun. 16, 2014 Rise Set
Actual Time 5:33 AM CDT 9:12 PM CDT
Civil Twilight 4:56 AM CDT 9:50 PM CDT
Nautical Twilight 4:05 AM CDT 10:41 PM CDT
Astronomical Twilight 2:58 AM CDT 11:48 PM CDT
Moon 11:53 PM CDT (6/16) 9:49 AM CDT (6/16)
Length of Visible Light 16h 54m
Length of Day
15h 38m
Waning Gibbous, 83% of the Moon is Illuminated
Jun 16
Waning Gibbous
Jun 19
Last Quarter
Jun 27
New
Jul 5
First Quarter
Jul 12
Full

Hourly Weather History & Observations

Time (CDT) Temp. Dew Point Humidity Pressure Visibility Wind Dir Wind Speed Gust Speed Precip Events Conditions
12:13 AM 62.6 °F 53.6 °F 72% 29.81 in 10.0 mi WSW 8.1 mph - N/A   Scattered Clouds
12:33 AM 62.6 °F 53.6 °F 72% 29.81 in 10.0 mi WSW 8.1 mph - N/A   Scattered Clouds
12:54 AM 62.6 °F 53.6 °F 72% 29.82 in 10.0 mi WSW 9.2 mph - N/A   Clear
1:13 AM 62.6 °F 53.6 °F 72% 29.82 in 10.0 mi WSW 6.9 mph - N/A   Clear
1:33 AM 60.8 °F 53.6 °F 77% 29.82 in 10.0 mi WSW 6.9 mph - N/A   Clear
1:54 AM 60.8 °F 53.6 °F 77% 29.82 in 10.0 mi SW 8.1 mph - N/A   Clear
2:13 AM 59.0 °F 53.6 °F 82% 29.82 in 10.0 mi SW 5.8 mph - N/A   Clear
2:33 AM 60.8 °F 53.6 °F 77% 29.82 in 10.0 mi WSW 8.1 mph - N/A   Clear
2:54 AM 60.8 °F 53.6 °F 77% 29.82 in 10.0 mi SW 5.8 mph - N/A   Scattered Clouds
3:13 AM 57.2 °F 53.6 °F 88% 29.82 in 10.0 mi Calm Calm - N/A   Scattered Clouds
3:33 AM 59.0 °F 53.6 °F 82% 29.82 in 10.0 mi Calm Calm - N/A   Scattered Clouds
3:54 AM 57.2 °F 53.6 °F 88% 29.82 in 10.0 mi Calm Calm - N/A   Clear
4:13 AM 57.2 °F 53.6 °F 88% 29.82 in 10.0 mi Calm Calm - N/A   Clear
4:33 AM 55.4 °F 53.6 °F 94% 29.83 in 10.0 mi SSW 3.5 mph - N/A   Clear
4:54 AM 53.6 °F 51.8 °F 94% 29.83 in 10.0 mi Calm Calm - N/A   Clear
5:13 AM 55.4 °F 51.8 °F 88% 29.83 in 10.0 mi South 4.6 mph - N/A   Clear
5:33 AM 55.4 °F 51.8 °F 88% 29.83 in 10.0 mi South 5.8 mph - N/A   Clear
5:54 AM 55.4 °F 51.8 °F 88% 29.84 in 10.0 mi South 3.5 mph - N/A   Clear
6:13 AM 55.4 °F 53.6 °F 94% 29.84 in 10.0 mi South 4.6 mph - N/A   Clear
6:33 AM 57.2 °F 53.6 °F 88% 29.84 in 10.0 mi South 4.6 mph - N/A   Clear
6:54 AM 60.8 °F 53.6 °F 77% 29.84 in 10.0 mi SSW 5.8 mph - N/A   Clear
7:13 AM 60.8 °F 55.4 °F 82% 29.85 in 10.0 mi SSW 4.6 mph - N/A   Clear
7:33 AM 62.6 °F 55.4 °F 77% 29.84 in 10.0 mi SSW 5.8 mph - N/A   Clear
7:54 AM 62.6 °F 55.4 °F 77% 29.85 in 10.0 mi SSW 6.9 mph - N/A   Clear
8:13 AM 66.2 °F 57.2 °F 73% 29.84 in 10.0 mi SSW 5.8 mph - N/A   Clear
8:34 AM 66.2 °F 57.2 °F 73% 29.84 in 10.0 mi SSW 5.8 mph - N/A   Clear
8:54 AM 69.8 °F 57.2 °F 64% 29.84 in 10.0 mi SW 5.8 mph - N/A   Clear
9:13 AM 69.8 °F 57.2 °F 64% 29.83 in 10.0 mi SSW 5.8 mph - N/A   Clear
9:34 AM 71.6 °F 60.8 °F 69% 29.84 in 10.0 mi SSW 4.6 mph - N/A   Clear
9:53 AM 71.6 °F 60.8 °F 69% 29.84 in 10.0 mi SSW 4.6 mph - N/A   Clear
10:34 AM 71.6 °F 59.0 °F 64% 29.82 in 10.0 mi South 5.8 mph - N/A   Clear
10:53 AM 71.6 °F 60.8 °F 69% 29.81 in 10.0 mi South 6.9 mph - N/A   Clear
11:13 AM 71.6 °F 60.8 °F 69% 29.79 in 10.0 mi SE 8.1 mph - N/A   Clear
11:34 AM 73.4 °F 60.8 °F 65% 29.79 in 10.0 mi SE 9.2 mph - N/A   Clear
11:54 AM 71.6 °F 62.6 °F 73% 29.82 in 10.0 mi SSE 4.6 mph - N/A   Clear
12:13 PM 71.6 °F 62.6 °F 73% 29.82 in 10.0 mi SSE 4.6 mph - N/A   Clear
12:34 PM 71.6 °F 64.4 °F 78% 29.79 in 10.0 mi East 5.8 mph - N/A   Clear
12:54 PM 71.6 °F 64.4 °F 78% 29.81 in 10.0 mi East 4.6 mph - N/A Thunderstorm Clear
1:13 PM 71.6 °F 64.4 °F 78% 29.81 in 10.0 mi ENE 6.9 mph - N/A   Scattered Clouds
1:34 PM 69.8 °F 64.4 °F 83% 29.82 in 10.0 mi ENE 4.6 mph - N/A   Scattered Clouds
1:54 PM 69.8 °F 64.4 °F 83% 29.85 in 10.0 mi Calm Calm - N/A Rain , Thunderstorm Light Thunderstorms and Rain
2:13 PM 68.0 °F 64.4 °F 88% 29.88 in 10.0 mi North 6.9 mph - N/A Rain , Thunderstorm Light Thunderstorms and Rain
2:34 PM 68.0 °F 64.4 °F 88% 29.86 in 10.0 mi North 8.1 mph - N/A Rain , Thunderstorm Light Thunderstorms and Rain
2:54 PM 66.2 °F 64.4 °F 94% 29.89 in 10.0 mi NNE 4.6 mph - N/A Rain , Thunderstorm Light Thunderstorms and Rain
3:34 PM 66.2 °F 64.4 °F 94% 29.74 in 10.0 mi SE 12.7 mph 23.0 mph N/A Rain , Thunderstorm Light Thunderstorms and Rain
3:54 PM 64.4 °F 60.8 °F 88% 29.74 in 10.0 mi SSE 16.1 mph 26.5 mph N/A   Clear
4:13 PM 64.4 °F 57.2 °F 77% 29.71 in 10.0 mi SSE 19.6 mph 25.3 mph N/A   Clear
4:34 PM 66.2 °F 57.2 °F 73% 29.69 in 10.0 mi South 15.0 mph 19.6 mph N/A   Clear
4:54 PM 68.0 °F 57.2 °F 68% 29.64 in 10.0 mi SE 13.8 mph 19.6 mph N/A   Clear
5:13 PM 68.0 °F 57.2 °F 68% 29.64 in 10.0 mi SE 11.5 mph 21.9 mph N/A Thunderstorm Clear
5:34 PM 68.0 °F 57.2 °F 68% 29.63 in 10.0 mi SE 10.4 mph - N/A   Clear
5:53 PM 68.0 °F 57.2 °F 68% 29.63 in 10.0 mi SE 5.8 mph - N/A   Clear
6:14 PM 66.2 °F 59.0 °F 78% 29.66 in 10.0 mi South 6.9 mph - N/A   Clear
6:34 PM 68.0 °F 57.2 °F 68% 29.66 in 10.0 mi SSW 5.8 mph - N/A   Clear
6:53 PM 66.2 °F 57.2 °F 73% 29.65 in 10.0 mi Calm Calm - N/A   Clear
7:14 PM 66.2 °F 57.2 °F 73% 29.66 in 10.0 mi South 5.8 mph - N/A   Clear
7:34 PM 66.2 °F 57.2 °F 73% 29.66 in 10.0 mi South 4.6 mph - N/A   Clear
7:53 PM 66.2 °F 57.2 °F 73% 29.66 in 10.0 mi SSW 6.9 mph - N/A   Clear
8:14 PM 66.2 °F 57.2 °F 73% 29.66 in 10.0 mi SSE 5.8 mph - N/A   Clear
8:34 PM 66.2 °F 57.2 °F 73% 29.65 in 10.0 mi East 4.6 mph - N/A   Clear
8:53 PM 66.2 °F 57.2 °F 73% 29.64 in 10.0 mi Calm Calm - N/A   Clear
9:14 PM 66.2 °F 57.2 °F 73% 29.64 in 10.0 mi Calm Calm - N/A   Clear
9:34 PM 66.2 °F 57.2 °F 73% 29.65 in 10.0 mi SSE 4.6 mph - N/A   Clear
9:53 PM 64.4 °F 57.2 °F 77% 29.65 in 10.0 mi East 4.6 mph - N/A   Clear
10:14 PM 64.4 °F 57.2 °F 77% 29.66 in 10.0 mi ESE 5.8 mph - N/A   Clear
10:34 PM 64.4 °F 57.2 °F 77% 29.67 in 10.0 mi East 6.9 mph - N/A   Clear
10:53 PM 64.4 °F 57.2 °F 77% 29.68 in 10.0 mi ESE 4.6 mph - N/A   Clear
11:14 PM 64.4 °F 57.2 °F 77% 29.70 in 10.0 mi SE 5.8 mph - N/A   Clear
11:34 PM 64.4 °F 57.2 °F 77% 29.70 in 10.0 mi ESE 6.9 mph - N/A   Clear
11:53 PM 64.4 °F 57.2 °F 77% 29.68 in 10.0 mi East 4.6 mph - N/A   Scattered Clouds